Tracking 35275 objects as of 8-Sep-2026
HD Live streaming from Space Station
objects crossing your sky now

STARLINK-31697

Track STARLINK-31697 now!
10-day predictions
STARLINK-31697 is classified as:


NORAD ID: 59583
Int'l Code: 2024-076V
Launch date: April 23, 2024
Source: United States (US)
Launch site: AIR FORCE EASTERN TEST RANGE (AFETR)
Your satellite tracking list
Your tracking list is empty




NASA's NSSDC Master Catalog

Two Line Element Set (TLE):
1 59583U 24076V   26251.43664705  .00001479  00000-0  63299-4 0  9994
2 59583  43.0048  56.7381 0001480 267.7865  92.2818 15.27567735134360
Source of the keplerian elements: AFSPC